Cloud_Cover
3 0 2 0 0 0 0 0 2 19 0 0 0 0 0 2 0 8 8 0 0 0 8 84 46 0 0 97 82 99 79 16 50 99 94 98 99 80 82 84 53 11 5 94 99
5 4 0 4 0 0 0 0 0 5 20 4 0 0 27 0 1 30 28 1 0 0 2 10 80 33 0 0 100 93 100 55 35 72 50 31 75 99 75 64 40 99 39 38 99
49 5 5 0 54 0 0 0 0 0 11 45 0 2 59 33 41 22 42 82 0 2 0 5 5 85 15 0 3 100 89 81 86 7 5 5 53 100 100 99 76 88 75 81 100
0 5 5 0 0 4 0 0 0 0 1 1 4 85 29 11 65 0 0 0 0 4 2 5 5 7 100 9 0 89 100 100 51 44 65 5 5 100 100 100 78 100 78 100 100
3 0 5 5 0 0 1 5 31 6 31 40 6 86 100 62 38 3 0 0 0 2 0 4 51 97 98 80 2 0 97 34 68 5 86 66 24 100 100 99 44 99 92 83 92
5 0 1 5 5 0 0 5 69 85 66 100 100 75 88 99 40 5 10 0 0 0 2 5 5 53 100 48 37 3 1 36 65 20 75 5 5 9 100 100 8 72 96 92 98
5 3 2 4 5 5 5 25 98 100 100 100 100 100 100 100 100 48 5 2 0 0 8 0 0 5 5 75 8 3 5 1 81 31 17 7 2 94 7 55 5 97 95 55 97
2 5 6 0 71 5 5 100 100 100 100 100 100 100 100 100 100 87 10 0 0 0 0 0 5 12 5 20 40 5 5 2 2 82 7 12 26 100 2 5 5 82 100 86 100
5 5 24 12 72 54 5 67 100 100 100 100 100 100 100 99 100 92 69 5 10 9 0 15 5 5 5 5 70 22 5 19 5 0 3 3 25 100 0 3 2 5 5 38 93
64 5 86 100 98 96 100 99 100 100 100 100 100 100 100 100 100 66 96 86 34 31 16 56 84 6 14 4 1 5 63 42 39 9 0 0 1 61 0 0 0 0 5 5 67
100 10 98 100 100 100 100 100 100 100 57 14 73 75 84 100 100 100 62 100 100 100 100 100 100 89 0 2 53 76 99 13 88 40 0 0 0 5 0 0 0 0 5 22 90
100 100 75 100 99 100 100 100 100 65 97 14 56 74 99 100 100 99 100 100 100 100 100 100 89 3 27 5 8 100 100 95 100 100 3 0 0 5 0 0 0 0 5 97 73
100 100 98 100 100 100 78 94 100 100 100 100 100 100 59 100 100 100 100 100 100 100 100 40 98 79 42 36 14 36 84 96 100 96 9 0 0 5 1 0 0 0 1 97 100
100 100 91 100 100 50 100 100 100 100 100 100 91 9 50 100 100 17 40 100 100 100 100 100 89 53 44 12 22 81 65 99 100 100 97 4 8 0 4 0 0 0 0 12 100
100 100 100 100 100 98 100 100 100 100 100 100 100 99 58 5 5 97 53 55 100 100 100 100 76 100 96 22 86 99 74 92 100 100 100 60 95 0 0 0 0 1 5 5 39
100 100 100 100 100 100 100 100 100 100 100 100 58 87 24 53 50 81 41 8 22 100 100 100 100 100 100 100 69 54 57 91 65 95 96 4 16 0 41 5 5 5 5 5 88
100 100 100 100 100 96 100 100 100 100 100 100 34 58 6 60 94 100 100 99 86 100 100 100 100 100 79 98 70 90 99 100 100 100 43 4 5 0 59 58 55 74 10 5 6
100 100 100 100 86 100 100 100 100 100 32 48 66 75 91 85 100 89 99 100 100 100 100 100 100 96 7 5 44 70 98 93 24 65 5 4 1 0 91 94 80 99 30 5 5
100 100 100 100 100 100 100 100 100 100 36 100 97 100 95 99 100 95 33 100 100 100 100 100 100 94 100 100 14 28 5 37 23 90 37 18 0 0 4 96 98 100 100 100 12
100 99 100 99 100 100 100 100 100 83 23 62 70 78 29 52 97 96 32 27 90 100 100 100 100 100 96 99 73 74 38 98 100 100 96 4 4 0 0 2 94 37 100 100 100
100 100 100 100 100 100 100 100 100 89 26 22 41 100 100 99 94 100 91 28 67 100 100 100 100 100 100 100 100 100 94 97 100 100 63 67 1 0 0 0 0 84 24 96 100
100 100 100 100 100 100 100 100 100 100 38 90 23 100 100 100 100 100 66 100 100 100 100 100 100 100 100 100 100 99 8 98 100 96 100 98 15 0 0 0 0 0 10 38 30
100 98 100 100 100 100 100 100 100 100 100 46 32 86 100 100 100 100 75 84 100 100 100 100 100 100 100 100 97 72 15 14 89 100 52 99 1 0 0 0 0 0 0 0 3
100 98 100 100 100 100 100 100 100 100 100 69 30 100 100 100 98 93 100 100 100 100 100 100 100 100 100 90 28 22 5 5 37 100 52 8 0 0 0 0 0 0 0 0 0
87 100 100 100 100 100 100 100 100 100 27 5 97 100 100 100 100 91 100 100 100 100 100 100 100 100 11 35 23 1 1 5 48 11 18 0 0 0 0 0 0 0 0 0 0
100 100 100 100 100 100 100 91 98 90 96 5 70 100 100 100 100 100 100 100 100 100 100 98 93 5 5 3 50 50 5 5 3 5 4 4 2 0 0 0 0 0 0 0 0
82 68 100 100 100 84 22 76 6 95 65 100 100 100 100 100 100 100 100 100 100 100 100 100 85 53 64 97 96 61 8 5 3 0 1 4 0 0 0 0 0 0 0 0 0